Location: Kunchanapalle
(16.4623°N, 80.6176°E)
Time: 14:27:33
(UTC+00:00)

Cosmos 1328 Rocket - Pass Details

Date: 13 August 2020
Orbit: 602 x 626 km, 82.5° (Epoch: 24 September)

Event Time Altitude Azimuth Distance (km) Brightness Sun altitude
Rises 13:37:38 0° 355° (N) 2,898 7.3 -8.7°
Reaches altitude 10° 13:39:52 10° 356° (N) 1,993 6.5 -9.2°
Maximum altitude 13:44:17 90° 7° (N) 629 3.6 -10.2°
Drops below altitude 10° 13:48:43 10° 176° (S) 1,992 5.9 -11.2°
Sets 13:50:56 0° 176° (S) 2,896 6.8 -11.7°
